Weather History for Vancouver, WA

Change the Weather History Date:

Friday, June 21, 2013

  Actual Average Record
Temperature  
Mean Temperature 63 °F 64 °F  
Max Temperature 71 °F 74 °F 91 °F (1938)
Min Temperature 55 °F 54 °F 39 °F (1899)
Degree Days  
Heating Degree Days 2    
Month to date heating degree days 55  
Since 1 June heating degree days 55  
Since 1 July heating degree days 4199  
Cooling Degree Days 0    
Month to date cooling degree days 15  
Year to date cooling degree days 27  
Since 1 June cooling degree days 15  
Growing Degree Days 12 (Base 50)    
Moisture  
Dew Point 49 °F    
Average Humidity 62    
Maximum Humidity 77    
Minimum Humidity 47    
Precipitation  
Precipitation 0.00 in 0.05 in 1.24 in (1984)
Month to date precipitation 1.09 1.40  
Year to date precipitation 14.32 19.98  
Snow  
Snow 0.00 in - - ()
Month to date snowfall 0.0  
Since 1 June snowfall 0.0  
Snow Depth 0.00 in    
Sea Level Pressure  
Sea Level Pressure 30.15 in    
Wind  
Wind Speed 2 mph (NW)    
Max Wind Speed 9 mph    
Max Gust Speed 13 mph    
Visibility 10 miles    
Events      
T = Trace of Precipitation, MM = Missing Value Source: NWS Daily Summary

Daily Weather History Graph

Daily Weather History Graph

Search for Another Location

Airport:

Trip Planner

Search our weather history database for the weather conditions in past years. The results will help you decide how hot, cold, wet, or windy it might be!

Date:

Astronomy

Jun. 21, 2013 Rise Set
Actual Time 5:21 AM PDT 9:03 PM PDT
Civil Twilight 4:43 AM PDT 9:41 PM PDT
Nautical Twilight 3:52 AM PDT 10:32 PM PDT
Astronomical Twilight 2:42 AM PDT 11:42 PM PDT
Moon 7:16 PM PDT (6/21) 3:46 AM PDT (6/21)
Length of Visible Light 16h 58m
Length of Day
15h 42m
Waxing Gibbous, 96% of the Moon is Illuminated
Jun 21
Waxing Gibbous
Jun 23
Full
Jun 29
Last Quarter
Jul 8
New
Jul 15
First Quarter

Hourly Weather History & Observations

Time (PDT) Temp. Dew Point Humidity Pressure Visibility Wind Dir Wind Speed Gust Speed Precip Events Conditions
12:53 AM 57.9 °F 48.0 °F 70% 30.15 in 10.0 mi Calm Calm - N/A   Overcast
1:53 AM 57.9 °F 48.0 °F 70% 30.15 in 10.0 mi Calm Calm - N/A   Mostly Cloudy
2:53 AM 55.9 °F 48.9 °F 77% 30.15 in 10.0 mi Calm Calm - N/A   Overcast
3:53 AM 55.9 °F 48.9 °F 77% 30.14 in 10.0 mi Calm Calm - N/A   Overcast
4:53 AM 57.0 °F 48.9 °F 74% 30.15 in 10.0 mi Calm Calm - N/A   Overcast
5:53 AM 57.0 °F 50.0 °F 77% 30.15 in 10.0 mi Calm Calm - N/A   Overcast
6:53 AM 57.9 °F 50.0 °F 75% 30.16 in 10.0 mi NNE 3.5 mph - N/A   Overcast
7:53 AM 57.9 °F 48.9 °F 72% 30.18 in 10.0 mi Calm Calm - N/A   Overcast
8:53 AM 59.0 °F 48.9 °F 69% 30.18 in 10.0 mi Calm Calm - N/A   Overcast
9:53 AM 60.1 °F 48.9 °F 67% 30.18 in 10.0 mi Calm Calm - N/A   Overcast
10:38 AM 60.8 °F 48.2 °F 63% 30.18 in 10.0 mi Variable 3.5 mph - N/A   Overcast
10:53 AM 61.0 °F 48.9 °F 64% 30.18 in 10.0 mi Calm Calm - N/A   Overcast
11:01 AM 62.6 °F 48.2 °F 59% 30.17 in 10.0 mi Calm Calm - N/A   Overcast
11:37 AM 62.6 °F 48.2 °F 59% 30.17 in 10.0 mi SSW 4.6 mph - N/A   Mostly Cloudy
11:44 AM 62.6 °F 48.2 °F 59% 30.17 in 10.0 mi West 5.8 mph - N/A   Overcast
11:53 AM 64.0 °F 48.9 °F 58% 30.17 in 10.0 mi Variable 5.8 mph - N/A   Mostly Cloudy
12:53 PM 64.9 °F 48.9 °F 56% 30.17 in 10.0 mi WNW 4.6 mph - N/A   Mostly Cloudy
1:53 PM 68.0 °F 48.9 °F 50% 30.15 in 10.0 mi Variable 6.9 mph - N/A   Partly Cloudy
2:53 PM 68.0 °F 48.9 °F 50% 30.15 in 10.0 mi WSW 5.8 mph - N/A   Overcast
3:53 PM 69.1 °F 48.0 °F 47% 30.14 in 10.0 mi Variable 3.5 mph - N/A   Overcast
4:53 PM 69.1 °F 48.0 °F 47% 30.14 in 10.0 mi Calm Calm - N/A   Overcast
5:53 PM 69.1 °F 48.9 °F 49% 30.13 in 10.0 mi NW 5.8 mph - N/A   Overcast
6:53 PM 66.9 °F 51.1 °F 57% 30.13 in 10.0 mi NW 8.1 mph - N/A   Overcast
7:53 PM 66.0 °F 51.1 °F 59% 30.13 in 10.0 mi NNW 5.8 mph - N/A   Overcast
8:53 PM 64.9 °F 52.0 °F 63% 30.13 in 10.0 mi North 4.6 mph - N/A   Scattered Clouds
9:53 PM 62.1 °F 51.1 °F 67% 30.14 in 10.0 mi North 3.5 mph - N/A   Clear
10:53 PM 61.0 °F 51.1 °F 70% 30.14 in 10.0 mi NNW 4.6 mph - N/A   Clear
11:53 PM 57.9 °F 52.0 °F 81% 30.13 in 10.0 mi Calm Calm - N/A   Clear